Torna al catalogo

STARLINK-37836

AttivoComunicazioniSSO
NORAD 69425·PAYLOAD·🇺🇸 United States

Lanciato Jun 7, 2026 da Vandenberg Space Force Base

Loading…

Prossimi Passaggi (prossime 24 ore)

TLE

AggiornatoSource: CelesTrak SupGP

Epoca: Sep 14, 2026, 21:04 UTC

1 69425C 26126F   26257.87826389  .00013740  00000+0  42671-3 0  2570
2 69425  97.2847 119.1616 0001794  92.8187 161.8839 15.33417023    12

Traccia STARLINK-37836 in tempo reale con AllMySat

Download on the App Store